THOR ABLESTAR DEB, 552

Orbit data source: Space-Track

THOR ABLESTAR DEB, 552 is space debris in LEO originally from a launch on Thu, 29 Jun 1961 UTC launched from the Air Force Eastern Test Range (AFETR). Debris objects in space refer to the collection of defunct objects orbiting the Earth. Examples of debris include non-operational satellites, rocket bodies, and fragments generated from explosions, collisions, or faulty payload assembly.

Loading next visibility...
Identifier
552, 1961-015GM
Orbit
LEO
Country
Flag of USUS
Related business
Manufacturer
Unknown
Mission
Spacecraft
Bus & Motor
Unknown
Mass
Unknown
Launch date (UTC)
1961-06-29 (64 years ago)
Launch vehicle
Unknown
Launch site
Air Force Eastern Test Range (AFETR)
Object type
Payload
Rocket body
Debris
Shape & HBR
Unknown
Radar Cross Section
Small (<0.1 m²)

Expand to show TLE details & history
Last TLE update: 23 hours ago

TLE from 23 hours ago
0 THOR ABLESTAR DEB
1 00552U 61015GM  25260.19916950  .00001530  00000-0  10617-2 0  9996
2 00552  67.7384 341.4547 0106459 238.7156 120.3476 13.98615898218512
Epoch: 2025-09-17T04:46Z
TLE epoch observation values (Epoch: 2025-09-17T04:46:48.244Z)
Latitude
0.00002°
Longitude
-86.62486°
Altitude
940.5 km
Speed
7.362 km/s
True Right ascension
22h 45m 49s
True Declination
0° 00' 00"
Sunlit
Object was in full shadow at epoch
Visualization orbit readout
Latitude
Unknown
Longitude
Unknown
Altitude
Unknown
Speed
Unknown
Apparent Right ascension
Unknown
Apparent Declination
Unknown
Sunlit
N/A
Visualization observer readout
Local Sidereal Time
20:46:13
Azimuth
Unknown
Elevation
Unknown
Doppler factor
Unknown
Orbital elements
Apogee altitude
974.322 km
Perigee altitude
819.424 km
Semi-major axis
7,275.01 km
Eccentricity
0.01065
Inclination
67.7384°
RAAN
341.4547°
Arg. of periapsis
238.7156°
True anomaly
121.39328°
Mean anomaly
120.3476°
Eccentric anomaly
120.87115°
Mean motion
3.49778 °/min
Orbital period
102.92 mins
BSTAR
0.0010617
Loading maneuver chart data...
Computing Atmospheric mass density...

Documentation

Showing up to 5 results
|